Regional Weather Roundup
Issued by NWS Boston, MA

Current Version | Previous Version | Text Only | Print | Product List | Glossary Off
Versions: 1 2 3 4 5 6 7 8 9 10 11 12 13 14 15 16 17 18 19 20 21 22 23 24 25 26 27 28 29 30 31 32 33 34 35 36 37 38 39 40 41 42 43 44 45 46 47 48 49 50
397 ASUS41 KBOX 142110 RWRBOX REGIONAL WEATHER ROUNDUP NATIONAL WEATHER SERVICE TAUNTON MA 400 PM EST THU DEC 14 2017 NOTE: "FAIR" INDICATES FEW OR NO CLOUDS BELOW 12,000 FEET WITH NO SIGNIFICANT WEATHER AND/OR OBSTRUCTIONS TO VISIBILITY. MAZALL-142200- EASTERN MASSACHUSETTS CITY SKY/WX TMP DP RH WIND PRES REMARKS BOSTON PTCLDY 28 4 35 W15 29.74R WCI 16 BEVERLY CLEAR 27 1 32 W14G23 29.72R WCI 16 LAWRENCE CLEAR 27 1 32 NW14G24 29.75R WCI 16 BEDFORD PTCLDY 25 4 40 W12 29.74R WCI 14 BLUE HILL N/A 24 5 44 W18G25 29.70R WCI 10 NORWOOD CLEAR 28 5 37 W10G20 29.76R WCI 19 MARSHFIELD CLEAR 28 9 43 VRB7G14 29.74R WCI 21 PLYMOUTH CLEAR 29 9 43 W9 29.74R WCI 20 TAUNTON CLEAR 28 6 39 W12G22 29.75R WCI 18 NEW BEDFORD CLEAR 26 11 52 W12 29.75R WCI 16 $$ MAZALL-142200- CAPE COD AND THE ISLANDS CITY SKY/WX TMP DP RH WIND PRES REMARKS FALMOUTH CLEAR 27 10 50 W13G18 29.75R WCI 16 HYANNIS CLEAR 26 15 63 W6 29.73R WCI 19 CHATHAM CLEAR 26 18 71 SW7 29.74R WCI 18 PROVINCETOWN CLEAR 28 14 55 W17G26 29.73R WCI 16 NANTUCKET CLEAR 27 18 69 W13 29.75R WCI 16 MARTHAS VNYRD PTCLDY 28 19 69 NW12 29.75R WCI 18 $$ MAZALL-142200- CENTRAL AND WESTERN MASSACHUSETTS CITY SKY/WX TMP DP RH WIND PRES REMARKS WORCESTER CLEAR 21 -2 36 W10G26 29.71R WCI 10 FITCHBURG CLEAR 25 6 44 W15G24 29.75R WCI 13 ORANGE NOT AVBL SPRINGFIELD PTCLDY 22 1 39 W16 29.81R WCI 8 WESTFIELD CLEAR 22 4 46 W13G20 29.83R WCI 10 NORTH ADAMS CLEAR 16 2 54 W14 29.83R WCI 2 PITTSFIELD CLEAR 15 0 51 W18G30 29.77R WCI -2 $$ RIZALL-142200- RHODE ISLAND CITY SKY/WX TMP DP RH WIND PRES REMARKS PROVIDENCE PTCLDY 27 6 41 NW17G28 29.79R WCI 14 NEWPORT CLEAR 27 7 42 W15G30 29.77R WCI 15 BLOCK ISLAND PTCLDY 27 13 55 NW12G22 29.81R WCI 17 SMITHFIELD CLEAR 24 6 46 W12G21 29.76R WCI 13 WESTERLY CLEAR 28 5 37 NW10G20 29.82R WCI 19 $$ CTZALL-142200- CONNECTICUT CITY SKY/WX TMP DP RH WIND PRES REMARKS BRADLEY INTL PTCLDY 23 3 42 NW17G26 29.84R WCI 9 HARTFORD CLEAR 27 5 39 W10G21 29.85R WCI 17 BRIDGEPORT CLEAR 30 12 47 NW13 29.85R WCI 20 DANBURY PTCLDY 27 7 42 W10G22 29.85R WCI 17 GROTON CLEAR 28 8 43 NW12 29.82R WCI 18 NEW HAVEN CLEAR 29 11 47 NW10G20 29.84R WCI 20 CHESTER FAIR 27 9 46 NW7G15 29.81R WCI 19 MERIDEN CLEAR 27 6 41 NW14 29.84R WCI 16 WILLIMANTIC CLEAR 26 3 37 NW12G25 29.83R WCI 16 OXFORD PTCLDY 26 8 46 NW8 29.81R WCI 18 $$ MEZ002-015-021-024-NHZ003-005-008-011-012-014-VTZ005-008-142200- NORTHERN NEW ENGLAND CITY SKY/WX TMP DP RH WIND PRES REMARKS PORTLAND ME CLEAR 23 2 40 W12G18 29.67R WCI 12 BANGOR ME PTCLDY 15 6 67 CALM 29.60R CONCORD NH CLEAR 22 1 40 W10 29.72R WCI 11 MANCHESTER NH CLEAR 24 -4 29 NW13G21 29.72R WCI 12 NASHUA NH CLEAR 24 4 42 NW13G22 29.75R WCI 12 PORTSMOUTH NH CLEAR 24 1 37 NW9 29.70R WCI 14 JAFFREY NH CLEAR 21 1 41 W9 29.70R WCI 11 KEENE NH CLEAR 23 3 42 W9 29.76R WCI 13 BURLINGTON VT PTCLDY 15 -4 42 NW10 29.80R WCI 2 MT. WASHINGTON PTCLDY -13 -18 77 W70G86 N/A WCI -54 $$ NYZ052-076-142200- EASTERN NEW YORK CITY SKY/WX TMP DP RH WIND PRES REMARKS ALBANY PTCLDY 17 2 51 NW13G22 29.90R WCI 4 NEW YORK CITY PTCLDY 31 13 47 NW22G32 29.89R WCI 18 $$ ANZALL-142200- MARINE OBSERVATIONS STATION/POSITION TIME TEMP WIND PRES VSBY WAVE AIR SEA DIR/SP/G HT/PER (UTC) (F) (DEG/KT/KT) (MB) (MI) (FT/S) BOSTON BUOY 1950 31 47 290/ 19/ 23 1004.4 2/ 4 BUZZARDS BAY 2000 29 310/ 17/ 21 1007.2R NANTUCKET SOUND 1950 28 42 300/ 19/ 23 1005.3 3/ 4 MASS BAY-STELLWA NOT AVBL ISLE OF SHOALS 2000 26 300/ 20/ 24 1004.2R S OF BLOCK IS NOT AVBL $$ ......................KEY......................... SKY/WX - SKY CONDITION/PRESENT WEATHER TMP - TEMPERATURE IN FAHRENHEIT DWPT - DEWPOINT IN FAHRENHEIT RH - RELATIVE HUMIDITY IN PERCENT WIND - DIRECTION AND SPEED IN MPH PRES - MEAN SEA LEVEL PRESSURE IN INCHES OF HG WCI - WIND CHILL INDEX VSB - VISIBILITY IN MILES HX - HEAT INDEX TC - TEMPERATURE IN CELSIUS VRB - VARIABLE WIND DIRECTION N/A - NOT AVAILABLE

USA.gov is the U.S. government's official web portal to all federal, state and local government web resources and services.